Location: Montreal
(45.5000°N, 73.5833°W)
Time: 19:52:03
(UTC-05:00)

Vanguard 1 - Pass Details

Date: 18 October 2017
Orbit: 650 x 3834 km, 34.2° (Epoch: 17 November)

Event Time Altitude Azimuth Distance (km) Brightness Sun altitude
Rises 09:57:35 0° 279° (W) 7,965 14.2 23.8°
Reaches altitude 10° 10:07:58 10° 259° (WSW) 6,856 14.1 25.1°
Maximum altitude 10:16:10 13° 237° (WSW) 6,264 14.2 26.0°
Drops below altitude 10° 10:23:39 10° 214° (SW) 6,094 14.4 26.8°
Sets 10:31:44 0° 191° (S) 6,425 14.8 27.7°
